AC7PD Weather Reports


Display with metric or nautical units.
time (UTC)temp
F
wind
direction
speed
MPH
gust
MPH
rain 1hr
in
rain 24hr
in
rain mn
in
humidity
%
barometer
mb
20260505035004 67 216 2.0 5.0 0.00 0.00 0.00 62 1010.6
20260505034004 68 228 0.0 2.0 0.00 0.00 0.00 61 1010.4
20260505032004 70 273 2.0 7.0 0.00 0.00 0.00 58 1010.0
20260505031003 71 243 1.0 3.0 0.00 0.00 0.00 56 1009.9
20260505030004 72 280 2.0 5.0 0.00 0.00 0.00 55 1009.7
20260505023004 75 256 4.0 7.0 0.00 0.00 0.00 51 1009.5
20260505022003 76 358 1.0 5.0 0.00 0.00 0.00 50 1009.5
20260505015137 78 308 2.0 3.0 0.00 0.00 0.00 45 1009.5
20260505014137 78 344 4.0 5.0 0.00 0.00 0.00 44 1009.5
20260505013137 79 300 1.0 6.0 0.00 0.00 0.00 44 1009.5
20260505011136 80 233 4.0 6.0 0.00 0.00 0.00 38 1009.6
20260505010136 81 264 3.0 6.0 0.00 0.00 0.00 36 1009.6
20260505004137 82 332 2.0 6.0 0.00 0.00 0.00 36 1009.6
20260505003136 82 349 2.0 3.0 0.00 0.00 0.00 35 1009.6
20260505002137 83 322 3.0 5.0 0.00 0.00 0.00 33 1009.4
20260505001137 82 316 2.0 6.0 0.00 0.00 0.00 32 1009.5
20260505000137 82 0 3.0 7.0 0.00 0.00 0.00 31 1009.5
20260504235137 82 332 2.0 8.0 0.00 0.00 0.00 31 1009.4
20260504234137 83 327 2.0 5.0 0.00 0.00 0.00 31 1009.4
20260504233136 82 10 3.0 5.0 0.00 0.00 0.00 32 1009.4
20260504231137 82 302 5.0 8.0 0.00 0.00 0.00 31 1009.5
20260504230136 83 245 5.0 7.0 0.00 0.00 0.00 31 1009.7
20260504225136 83 342 4.0 9.0 0.00 0.00 0.00 32 1009.9
20260504224136 82 246 7.0 12.0 0.00 0.00 0.00 32 1010.0
20260504223137 83 276 2.0 5.0 0.00 0.00 0.00 33 1010.0
20260504222137 84 318 2.0 5.0 0.00 0.00 0.00 35 1010.2
20260504221136 83 324 2.0 6.0 0.00 0.00 0.00 34 1010.3
20260504220143 83 314 3.0 5.0 0.00 0.00 0.00 34 1010.4
20260504215143 83 267 2.0 8.0 0.00 0.00 0.00 34 1010.3
20260504214137 84 251 2.0 8.0 0.00 0.00 0.00 35 1010.4
20260504212137 83 310 2.0 3.0 0.00 0.00 0.00 37 1010.4
20260504211137 82 326 3.0 6.0 0.00 0.00 0.00 36 1010.4
20260504210137 81 345 2.0 8.0 0.00 0.00 0.00 37 1010.5
20260504205137 81 305 3.0 9.0 0.00 0.00 0.00 39 1010.5
20260504204136 82 295 3.0 9.0 0.00 0.00 0.00 40 1010.4
20260504203137 82 216 5.0 7.0 0.00 0.00 0.00 39 1010.4
20260504202137 81 264 2.0 5.0 0.00 0.00 0.00 40 1010.4
20260504201137 80 197 2.0 7.0 0.00 0.00 0.00 39 1010.5
20260504200137 81 329 2.0 5.0 0.00 0.00 0.00 38 1010.6
20260504195136 80 264 3.0 10.0 0.00 0.00 0.00 39 1010.6
20260504194136 80 233 5.0 8.0 0.00 0.00 0.00 37 1010.6
20260504193136 81 253 3.0 6.0 0.00 0.00 0.00 38 1010.6
20260504192136 80 173 2.0 9.0 0.00 0.00 0.00 38 1010.6
20260504191136 80 185 2.0 3.0 0.00 0.00 0.00 37 1010.7
20260504190137 78 229 1.0 3.0 0.00 0.00 0.00 40 1010.8
20260504185137 77 351 3.0 5.0 0.00 0.00 0.00 40 1010.9
20260504184137 77 240 4.0 6.0 0.00 0.00 0.00 42 1011.0
20260504183136 77 287 1.0 3.0 0.00 0.00 0.00 42 1011.2
20260504182137 76 312 1.0 6.0 0.00 0.00 0.00 46 1011.2
20260504180137 75 204 1.0 5.0 0.00 0.00 0.00 45 1011.1
20260504175137 74 264 3.0 5.0 0.00 0.00 0.00 47 1011.1
20260504174136 73 243 1.0 6.0 0.00 0.00 0.00 48 1011.2
20260504172136 72 244 3.0 8.0 0.00 0.00 0.00 48 1011.2
20260504171137 72 205 1.0 3.0 0.00 0.00 0.00 48 1011.1
20260504170136 71 176 3.0 6.0 0.00 0.00 0.00 47 1011.1
20260504160136 67 243 3.0 7.0 0.00 0.00 0.00 51 1010.9
20260504151136 60 324 0.0 0.0 0.00 0.00 0.00 72 1010.7
20260504150136 58 324 0.0 0.0 0.00 0.00 0.00 78 1010.6
20260504141137 50 324 0.0 0.0 0.00 0.00 0.00 88 1010.1
20260504140137 49 324 0.0 0.0 0.00 0.00 0.00 88 1010.1
20260504130137 48 324 0.0 0.0 0.00 0.00 0.00 88 1009.5
20260504120137 49 324 0.0 0.0 0.00 0.00 0.00 86 1009.5
20260504110137 50 324 0.0 0.0 0.00 0.00 0.00 85 1009.5
20260504100137 51 324 0.0 0.0 0.00 0.00 0.00 84 1009.4
20260504090136 53 324 0.0 0.0 0.00 0.00 0.00 81 1009.5
20260504081136 55 324 0.0 0.0 0.00 0.00 0.00 80 1009.8
20260504080136 55 324 0.0 0.0 0.00 0.00 0.00 80 1009.7
20260504070136 58 324 0.0 0.0 0.00 0.00 0.00 78 1009.6
20260504060136 61 324 0.0 0.0 0.00 0.00 0.00 74 1009.5
20260504050137 66 324 0.0 0.0 0.00 0.00 0.00 66 1009.7
20260504045137 67 324 0.0 0.0 0.00 0.00 0.00 65 1009.8
20260504044136 69 324 0.0 0.0 0.00 0.00 0.00 61 1009.8
20260504043137 69 324 0.0 0.0 0.00 0.00 0.00 60 1009.7
20260504042137 71 324 0.0 0.0 0.00 0.00 0.00 58 1009.5
20260504040136 73 324 0.0 0.0 0.00 0.00 0.00 53 1009.5